Location: Chintapalle
(16.6903°N, 80.1398°E)
Time: 15:40:00
(UTC+00:00)

Daily predictions for brighter satellites

Satellite Brightness Start Highest point End
(mag) Time Altitude Azimuth Time Altitude Azimuth Time Altitude Azimuth
CORIOLIS 4.2 12:17:14 10° SSE 12:22:31 62° ENE 12:27:50 10° N
Meteor 1-10 Rocket 4.3 12:19:22 10° S 12:25:12 74° E 12:30:55 10° N
Cosmos 482 Debris 3.6 12:23:00 10° SSW 12:25:31 76° SE 12:29:25 10° NE
Cosmos 1867 4.2 12:21:42 10° SW 12:27:01 59° WNW 12:32:23 10° NNE
Cosmos 1666 2.9 12:23:44 10° N 12:27:19 47° E 12:30:54 10° SSE
VEP-3 3.7 12:22:03 10° SW 12:27:35 34° SSE 12:33:38 10° E
CZ-4C R/B 4.1 12:25:24 10° NE 12:28:18 26° E 12:31:15 10° SSE
AQUARIUS 4.1 12:23:52 10° SSE 12:28:19 74° ENE 12:32:47 10° N
Cosmos 1697 Rocket 3.3 12:22:59 10° NNW 12:28:32 65° WSW 12:34:05 10° S
H-2A R/B 2.5 12:23:54 10° SE 12:28:44 39° ENE 12:33:27 10° N
GPS 2-12 Rocket1 3.1 12:28:05 10° WSW 12:32:39 81° SSE 12:37:08 10° E
Cosmos 2026 Rocket 4.5 12:26:54 10° NNW 12:32:53 65° W 12:38:51 10° S
Cosmos 372 Rocket 4.0 12:28:47 10° N 12:34:01 73° ENE 12:39:13 10° SSE
Cosmos 1980 Rocket 2.2 12:29:14 10° N 12:34:46 60° ENE 12:40:15 10° SSE
Cosmos 1937 Rocket 4.2 12:29:40 10° NNW 12:34:53 61° WSW 12:40:03 10° S
Gbstr 26 Del rocket 4.4 12:28:34 10° SSW 12:35:06 46° SE 12:40:27 10° NE
ARGOS 4.0 12:33:31 10° SE 12:37:58 26° ENE 12:42:23 10° NNE
Okean O Rocket 2.7 12:36:44 10° SE 12:40:12 23° ENE 12:43:39 10° NNE
Meteor 2-21 Rocket 4.5 12:34:47 10° N 12:40:51 87° W 12:46:53 10° S
USA 276 3.1 12:39:24 10° NW 12:42:25 49° SW 12:45:25 10° SSE
PSLV R/B 3.5 12:39:56 10° SSE 12:43:36 79° ENE 12:47:15 10° N
Cosmos 2369 4.0 12:40:20 10° NNW 12:46:01 75° WSW 12:51:40 10° S
Meteosat 1 Rocket2 3.7 12:43:19 10° W 12:47:59 42° NNW 12:51:08 13° NE
Cosmos 1666 Rocket 3.9 12:43:53 10° N 12:48:14 71° W 12:52:32 10° S
Aureole 3 Rocket 2.9 12:46:09 10° S 12:49:31 55° E 12:53:55 10° NNE
SMAP 4.3 12:46:06 10° S 12:50:32 45° W 12:54:58 10° NNW
SL-16 R/B 3.5 12:48:14 10° NNE 12:51:48 17° ENE 12:55:22 10° ESE
Cosmos 1470 Rocket 3.8 12:47:38 10° N 12:51:57 47° E 12:56:15 10° SSE
CZ-4B DEB 4.5 12:48:19 10° S 12:53:50 76° WSW 12:59:19 10° NNW
GPS 2-04 Rocket1 4.2 12:52:24 10° NNW 12:55:34 21° NNE 12:57:02 17° NE
Meteor 1-5 Rocket 4.4 12:50:49 10° N 12:56:41 82° W 13:02:22 10° S
deb Chang Zheng 4 3.8 12:53:23 10° SSE 12:57:27 43° ENE 13:01:32 10° N
CZ-4 R/B 3.6 12:56:20 10° ESE 12:56:24 10° ESE 12:56:24 10° ESE
Cosmos 1544 3.4 12:57:12 10° NNE 13:00:39 42° E 13:04:06 10° SSE
DNEPR-1 R/B 4.2 12:58:43 10° S 13:03:55 46° ESE 13:06:51 20° NE
Cosmos 2278 3.7 13:02:53 10° NNW 13:08:35 89° E 13:14:13 10° SSE
Cosmos 1655 Rocket 3.9 13:05:19 10° N 13:11:38 73° E 13:17:55 10° S
CZ-2C R/B 4.3 13:10:26 10° NNW 13:14:55 31° WNW 13:19:27 10° SW
H-2A R/B 2.5 13:13:28 24° NE 13:15:43 42° E 13:19:53 10° S
H-2A R/B 4.2 13:12:33 10° SW 13:19:21 18° S 13:21:59 12° SE
SL-24 R/B - RUBIN 2 4.4 13:15:21 10° NW 13:19:30 51° WSW 13:23:49 10° S
CZ-4B R/B 3.2 13:14:42 10° SSE 13:20:12 85° W 13:25:35 10° NNW
Hubble Space Telescope 2.8 13:19:35 10° S 13:21:56 15° SSE 13:22:43 14° SE
Cosmos 1553 Rocket 4.4 13:17:54 10° SSE 13:23:39 39° E 13:26:14 27° NE
Cosmos 2228 Rocket 3.0 13:20:23 10° S 13:24:46 83° W 13:29:01 11° N
CZ-4 R/B 4.5 13:23:57 10° S 13:28:03 79° WSW 13:32:10 10° NNW
Cosmos 44 Rocket 3.3 13:24:30 10° N 13:29:04 48° ENE 13:31:00 30° ESE
Cosmos 1356 Rocket 3.3 13:25:20 10° N 13:29:36 85° E 13:33:53 10° S
SL-27 R/B 3.4 13:27:14 10° SSW 13:30:31 45° WNW 13:32:34 20° NNW
GPS 2-15 Rocket1 3.1 13:30:06 10° W 13:34:46 73° SSW 13:36:15 42° ESE
IRAS Rocket 4.4 13:33:04 10° N 13:38:34 70° WNW 13:44:06 10° SSW
CZ-3 Stage 3 3.6 13:36:27 10° W 13:39:58 29° SW 13:41:59 15° SSE
Cosmos 2298 Rocket 4.1 13:38:45 10° NNW 13:44:04 78° WSW 13:49:23 10° S
BREEZE-M DEB (TANK) 4.1 13:42:02 10° WNW 13:44:24 34° WSW 13:44:24 34° WSW
Okean 1 3.5 13:41:20 10° S 13:45:19 69° W 13:46:17 48° NNW
YAOGAN 1 2.5 13:41:25 10° SSE 13:45:19 68° ESE 13:45:19 68° ESE
Cosmos 1538 Rocket 3.9 13:40:32 10° S 13:45:52 71° ESE 13:46:59 54° NE
USA 234 4.1 13:47:47 30° NNE 13:47:47 30° NNE 13:52:06 10° NNW
OAO 3 Rocket 4.0 13:42:13 10° SSW 13:46:16 35° SSE 13:46:16 35° SSE
Aurora 2 Rocket 3.6 13:41:48 10° W 13:46:41 60° SSW 13:50:18 27° SE
SWIFT 4.0 13:46:17 10° W 13:49:56 28° SSW 13:51:14 24° SSE
Cosmos 1707 Rocket 3.4 13:46:37 10° S 13:50:42 80° S 13:50:42 80° S
Cosmos 1818 3.7 13:55:27 10° NNW 14:00:51 74° WSW 14:06:13 10° SSE
CZ-4C R/B 3.7 13:55:48 10° NW 14:03:59 60° WSW 14:12:33 10° S
Cosmos 158 Rocket 4.3 14:06:55 10° SSW 14:11:34 57° W 14:11:34 57° W
Cosmos 1417 Rocket 4.4 14:05:26 10° S 14:11:44 89° E 14:12:24 74° N
Cosmos 2322 Rocket 4.2 14:09:49 10° NNW 14:22:46 - SSE 14:10:56 16° NNW
Okean O Rocket 4.4 14:13:21 10° SW 14:16:20 18° W 14:19:20 10° NW
ATLAS 5 CENTAUR R/B 2.3 14:13:35 10° W 14:19:36 43° WNW 14:19:36 43° WNW
Meteor 2-4 Rocket 4.0 14:16:52 10° SSW 14:21:39 63° SW 14:21:39 63° SW
CZ-4 R/B 3.8 14:30:04 10° SSW 14:32:23 21° WSW 14:32:23 21° WSW
SL-16 R/B 3.5 14:30:39 10° NW 14:35:49 38° WSW 14:41:00 10° S
CZ-3B R/B 4.2 14:32:24 10° SW 14:39:40 36° SSE 14:39:40 36° SSE
ATLAS 3B CENTAUR R/B 4.5 15:03:59 10° WNW 15:21:03 64° NNW 15:21:03 64° NNW
CZ-3 R/B 4.1 21:10:05 10° SW 22:00:11 69° SSE 22:11:12 10° ENE
ATLAS 3B R/B 3.8 22:05:58 10° S 22:11:45 36° ESE 22:17:37 10° NE
H-2A R/B (2) 3.3 22:45:38 31° NE 22:45:38 31° NE 22:50:01 10° ENE
Cosmos 2208 Rocket 3.9 23:01:02 85° N 23:01:13 89° E 23:06:29 10° SSE
Lacrosse 5 3.6 22:57:44 10° S 23:02:12 32° ESE 23:06:42 10° ENE
Delta 168 4.1 23:03:58 41° NNE 23:03:58 41° NNE 23:09:18 10° ENE
Cosmos 2034 Rocket 4.3 23:11:08 45° WSW 23:11:08 45° WSW 23:16:28 10° SSW
Cosmos 1867 3.4 23:10:28 67° W 23:10:43 68° WSW 23:16:04 10° SSE
SL-08 R/B 4.5 23:09:01 10° S 23:11:53 30° SSW 23:11:53 30° SSW
Meteor 1-26 Rocket 4.0 23:14:22 34° NNW 23:16:57 80° W 23:22:28 10° S
SJ 16-02 1.2 23:14:51 10° S 23:19:14 85° E 23:23:36 10° NNE
OAO 1 4.4 23:18:40 55° WNW 23:19:51 78° SW 23:25:22 10° SE
Envisat 3.3 23:15:11 10° NNE 23:20:13 68° ESE 23:25:15 10° S
H-2A R/B 2.9 23:19:42 10° NNE 23:23:28 69° E 23:27:16 10° S
SEDSat Delta rocket 3.9 23:21:04 36° WSW 23:23:57 74° NNW 23:30:22 10° ENE
SJ-12 4.0 23:20:55 10° NNE 23:25:03 76° ESE 23:29:09 10° S
GPS 2-17 Rocket1 2.8 23:24:46 63° W 23:25:28 89° NNE 23:29:54 10° ENE
Palapa 6 Rocket 4.4 23:24:50 19° SSW 23:26:40 28° SSE 23:30:06 10° E
Cosmos 1634 Rocket 3.9 23:20:58 10° N 23:27:10 84° W 23:33:20 10° S
Fermi 4.4 23:26:57 40° N 23:27:18 41° NNE 23:31:07 10° E
Gbstr 26 Del rocket 2.9 23:27:43 57° W 23:28:08 61° SW 23:32:46 10° SSE
IUS-1 SRM-2 3.7 23:27:49 28° N 23:28:57 32° NNE 23:37:57 10° E
Hubble Space Telescope 1.6 23:30:08 35° SW 23:30:35 36° SSW 23:34:22 10° SE
Meteor 1-31 Rocket 2.9 23:33:16 10° NNE 23:37:10 74° ESE 23:41:04 10° S
OAO 3 Copernicus 4.2 23:35:23 33° WSW 23:37:31 65° NNW 23:42:30 10° NE
BREEZE-M DEB (TANK) 4.2 23:35:47 10° SSW 23:40:50 46° SE 23:44:22 10° NE
Cosmos 921 Rocket 3.2 23:39:57 32° NW 23:41:43 52° W 23:46:05 10° S
Cosmos 1500 Rocket 4.3 23:39:13 10° S 23:43:33 54° E 23:47:53 10° NNE
DELTA 4 R/B 0.6 23:43:31 64° S 23:43:40 68° SSE 23:47:02 10° ENE
TSX-5 3.6 23:42:13 25° NNW 23:44:33 74° WSW 23:48:05 10° SSE
DASH 3.8 23:37:06 10° SW 23:45:46 47° SSE 23:48:51 10° E
Chandra Rocket (1) 1.0 23:52:57 31° WNW 23:54:18 87° SSW 23:56:47 10° ESE
Cosmos 1782 4.3 23:56:58 18° WSW 23:56:58 18° WSW 23:59:05 10° SW
